Location: Unspecified
(0.0000°N, 0.0000°E)
Time: 13:22:17
(UTC+00:00)

Hubble Space Telescope - Pass Details

Date: 22 May 2022
Orbit: 533 x 537 km, 28.5° (Epoch: 19 May)

Event Time Altitude Azimuth Distance (km) Brightness Sun altitude
Rises 19:24:09 0° 283° (WNW) 2,657 5.8 -20.4°
Reaches altitude 10° 19:26:34 10° 273° (W) 1,769 4.4 -21.0°
Maximum altitude 19:30:13 31° 210° (SSW) 946 2.0 -21.8°
Enters shadow 19:30:43 30° 195° (SSW) 968 1.9 -21.9°
